Location: Del Oro Observatory
(38.3044°N, 104.8119°W)
Time: 08:03:55
(UTC-06:00)

Iridium 35 - Visible Passes

Search period start: 02 September 2014 00:00
Search period end: 12 September 2014 00:00
Orbit: 776 x 779 km, 86.4° (Epoch: 01 September)

Date Brightness Start Highest point End Pass type
(mag) Time Alt. Az. Time Alt. Az. Time Alt. Az.
02 Sep 6.7 03:11:10 28° E 03:11:11 28° E 03:15:34 10° NNE visible
02 Sep 5.9 04:51:40 30° W 04:51:47 30° W 04:56:20 10° NNW visible
03 Sep 7.5 02:38:08 15° ENE 02:38:08 15° ENE 02:40:50 10° NE visible
03 Sep 5.2 04:18:38 53° WNW 04:18:38 53° WNW 04:23:15 10° N visible
04 Sep 5.5 03:45:35 58° NNE 03:45:35 58° NNE 03:49:47 10° N visible
04 Sep 7.0 05:26:05 11° WNW 05:26:05 11° WNW 05:27:10 10° WNW visible
05 Sep 6.5 03:12:31 34° NE 03:12:31 34° NE 03:16:00 10° NNE visible
05 Sep 6.5 04:53:01 20° WNW 04:53:01 20° WNW 04:55:53 10° NNW visible
06 Sep 7.4 02:39:26 19° ENE 02:39:26 19° ENE 02:41:46 10° NNE visible
06 Sep 6.1 04:19:55 30° NW 04:19:55 30° NW 04:23:07 10° NNW visible
07 Sep 6.2 03:46:49 36° N 03:46:49 36° N 03:49:52 10° N visible
08 Sep 6.7 03:13:41 29° NNE 03:13:41 29° NNE 03:16:17 10° N visible
08 Sep 7.1 04:54:11 12° NW 04:54:11 12° NW 04:55:02 10° NW visible
09 Sep 7.4 02:40:33 19° NE 02:40:33 19° NE 02:42:20 10° NNE visible
09 Sep 6.8 04:21:02 18° NW 04:21:02 18° NW 04:22:49 10° NNW visible
10 Sep 7.9 02:07:23 11° NE 02:07:23 11° NE 02:07:49 10° NE visible
10 Sep 6.8 03:47:53 22° NNW 03:47:53 22° NNW 03:49:49 10° N visible
11 Sep 7.1 03:14:42 22° N 03:14:42 22° N 03:16:26 10° N visible
